THY5HR LTFM-LTCA

Flight info

Callsign THY5HR
Flight time 1h 28m
Altitude 35000
Route VICEN UT57 VEVUD UT341 BAG UL614 BULUT
Aircraft A320/M-SDE3FGHIRWY/LB1

Departure

Time 2026-04-25 14:48
Airport İstanbul Airport (LTFM)

Arrival

Time 2026-04-25 16:17
Airport Elazığ Airport (LTCA)
Time Latitude Longitude Altitude Speed Heading
2026-04-25 13:41 41.25743 28.74837 334 ft 0 kts 359°
2026-04-25 14:33 41.25740 28.74837 334 ft 3 kts 359°
2026-04-25 14:33 41.25714 28.74840 330 ft 4 kts 345°
2026-04-25 14:33 41.25688 28.74852 329 ft 4 kts 331°
2026-04-25 14:33 41.25666 28.74872 333 ft 4 kts 319°
2026-04-25 14:34 41.25647 28.74897 332 ft 4 kts 309°
2026-04-25 14:34 41.25631 28.74926 331 ft 4 kts 304°
2026-04-25 14:34 41.25615 28.74954 331 ft 4 kts 320°
2026-04-25 14:34 41.25603 28.74965 329 ft 0 kts 359°
2026-04-25 14:38 41.25613 28.74964 330 ft 2 kts 359°
2026-04-25 14:38 41.25633 28.74970 333 ft 3 kts 34°
2026-04-25 14:38 41.25645 28.74999 331 ft 4 kts 68°
2026-04-25 14:39 41.25647 28.75031 333 ft 2 kts 91°
2026-04-25 14:39 41.25646 28.75059 333 ft 4 kts 91°
2026-04-25 14:39 41.25647 28.75105 332 ft 6 kts 88°
2026-04-25 14:39 41.25648 28.75173 330 ft 8 kts 88°
2026-04-25 14:40 41.25649 28.75237 333 ft 8 kts 89°
2026-04-25 14:40 41.25650 28.75313 332 ft 8 kts 89°
2026-04-25 14:40 41.25650 28.75363 334 ft 6 kts 87°
2026-04-25 14:40 41.25682 28.75402 333 ft 7 kts 18°
2026-04-25 14:41 41.25727 28.75404 334 ft 6 kts 359°
2026-04-25 14:41 41.25774 28.75403 334 ft 8 kts 359°
2026-04-25 14:41 41.25834 28.75401 333 ft 10 kts 359°
2026-04-25 14:41 41.25906 28.75400 330 ft 11 kts 359°
2026-04-25 14:42 41.25980 28.75398 334 ft 8 kts 359°
2026-04-25 14:42 41.26019 28.75397 331 ft 9 kts 359°
2026-04-25 14:42 41.26115 28.75394 330 ft 12 kts 359°
2026-04-25 14:42 41.26175 28.75393 333 ft 9 kts 359°
2026-04-25 14:43 41.26220 28.75392 333 ft 7 kts 359°
2026-04-25 14:43 41.26246 28.75429 333 ft 6 kts 73°
2026-04-25 14:43 41.26248 28.75464 334 ft 1 kts 89°
2026-04-25 14:43 41.26248 28.75482 334 ft 3 kts 89°
2026-04-25 14:44 41.26249 28.75522 334 ft 5 kts 89°
2026-04-25 14:44 41.26249 28.75531 334 ft 0 kts 89°
2026-04-25 14:45 41.26249 28.75540 334 ft 0 kts 89°
2026-04-25 14:45 41.26249 28.75552 334 ft 2 kts 89°
2026-04-25 14:45 41.26250 28.75584 334 ft 4 kts 89°
2026-04-25 14:46 41.26250 28.75612 334 ft 2 kts 89°
2026-04-25 14:46 41.26251 28.75638 334 ft 4 kts 89°
2026-04-25 14:46 41.26264 28.75659 332 ft 3 kts 31°
2026-04-25 14:46 41.26294 28.75668 332 ft 5 kts
2026-04-25 14:47 41.26306 28.75668 331 ft 0 kts
2026-04-25 14:47 41.26309 28.75668 331 ft 1 kts
2026-04-25 14:47 41.26317 28.75668 333 ft 7 kts
2026-04-25 14:47 41.26606 28.75664 332 ft 75 kts 358°
2026-04-25 14:48 41.27314 28.75648 332 ft 126 kts 357°
2026-04-25 14:48 41.28315 28.75643 346 ft 159 kts
2026-04-25 14:48 41.29380 28.75641 935 ft 145 kts
2026-04-25 14:48 41.30342 28.76080 1288 ft 153 kts 40°
2026-04-25 14:49 41.31158 28.76993 1771 ft 157 kts 41°
2026-04-25 14:49 41.32073 28.77885 2066 ft 171 kts 32°
2026-04-25 14:49 41.33150 28.78720 2378 ft 188 kts 30°
2026-04-25 14:49 41.34348 28.79609 2682 ft 207 kts 29°
2026-04-25 14:50 41.35664 28.80583 3077 ft 225 kts 29°
2026-04-25 14:50 41.37069 28.81666 3555 ft 242 kts 36°
2026-04-25 14:50 41.38145 28.83446 4107 ft 257 kts 69°
2026-04-25 14:50 41.38404 28.85835 4756 ft 268 kts 90°
2026-04-25 14:51 41.38417 28.88352 5480 ft 275 kts 90°
2026-04-25 14:51 41.38227 28.90891 6299 ft 277 kts 109°
2026-04-25 14:51 41.37255 28.93080 7083 ft 277 kts 137°
2026-04-25 14:51 41.35654 28.94455 7848 ft 276 kts 163°
2026-04-25 14:52 41.33755 28.94794 8596 ft 278 kts 181°
2026-04-25 14:52 41.31808 28.94813 9345 ft 282 kts 181°
2026-04-25 14:52 41.29829 28.94830 10095 ft 286 kts 181°
2026-04-25 14:52 41.28500 28.94843 10444 ft 293 kts 181°
2026-04-25 14:53 41.25671 28.94875 10895 ft 315 kts 181°
2026-04-25 14:53 41.23422 28.94809 11200 ft 331 kts 184°
2026-04-25 14:53 41.21088 28.94620 11674 ft 340 kts 185°
2026-04-25 14:53 41.18715 28.94371 12296 ft 344 kts 186°
2026-04-25 14:54 41.16321 28.94104 12923 ft 348 kts 185°
2026-04-25 14:54 41.13883 28.93841 13515 ft 353 kts 185°
2026-04-25 14:54 41.11424 28.93589 14090 ft 357 kts 185°
2026-04-25 14:54 41.08926 28.93344 14651 ft 361 kts 184°
2026-04-25 14:55 41.06414 28.93141 15209 ft 364 kts 180°
2026-04-25 14:55 41.03894 28.93485 15767 ft 367 kts 167°
2026-04-25 14:55 41.01472 28.94564 16314 ft 370 kts 155°
2026-04-25 14:55 40.99461 28.96153 16813 ft 373 kts 143°
2026-04-25 14:56 40.97529 28.98477 17353 ft 377 kts 135°
2026-04-25 14:56 40.95661 29.00937 17900 ft 380 kts 135°
2026-04-25 14:56 40.93768 29.03406 18437 ft 384 kts 136°
2026-04-25 14:56 40.91859 29.05883 18939 ft 387 kts 136°
2026-04-25 14:57 40.89930 29.08375 19461 ft 389 kts 136°
2026-04-25 14:57 40.87983 29.10884 20001 ft 392 kts 135°
2026-04-25 14:57 40.86111 29.13510 20542 ft 394 kts 128°
2026-04-25 14:57 40.84609 29.16537 21043 ft 395 kts 117°
2026-04-25 14:58 40.83544 29.19888 21542 ft 397 kts 106°
2026-04-25 14:58 40.82832 29.23417 22021 ft 400 kts 104°
2026-04-25 14:58 40.82132 29.26981 22497 ft 402 kts 104°
2026-04-25 14:58 40.81425 29.30569 22985 ft 405 kts 104°
2026-04-25 14:59 40.80713 29.34172 23467 ft 407 kts 104°
2026-04-25 14:59 40.79993 29.37795 23867 ft 409 kts 104°
2026-04-25 14:59 40.79266 29.41433 24247 ft 411 kts 104°
2026-04-25 14:59 40.78534 29.45101 24618 ft 414 kts 104°
2026-04-25 15:00 40.77799 29.48784 24978 ft 416 kts 104°
2026-04-25 15:00 40.77061 29.52485 25332 ft 419 kts 104°
2026-04-25 15:00 40.76319 29.56204 25679 ft 421 kts 104°
2026-04-25 15:00 40.75568 29.59945 26014 ft 423 kts 104°
2026-04-25 15:01 40.74809 29.63707 26347 ft 425 kts 104°
2026-04-25 15:01 40.74043 29.67483 26678 ft 427 kts 104°
2026-04-25 15:01 40.73491 29.71328 27006 ft 428 kts 95°
2026-04-25 15:01 40.73361 29.75259 27328 ft 430 kts 90°
2026-04-25 15:02 40.73299 29.79213 27639 ft 433 kts 90°
2026-04-25 15:02 40.73229 29.83184 27952 ft 435 kts 90°
2026-04-25 15:02 40.73157 29.87184 28269 ft 437 kts 91°
2026-04-25 15:02 40.73080 29.91194 28585 ft 439 kts 91°
2026-04-25 15:03 40.73000 29.95235 28880 ft 441 kts 91°
2026-04-25 15:03 40.72919 29.99285 29194 ft 444 kts 91°
2026-04-25 15:03 40.72828 30.03361 29491 ft 446 kts 93°
2026-04-25 15:03 40.72412 30.07427 29801 ft 448 kts 102°
2026-04-25 15:04 40.71532 30.11359 30198 ft 448 kts 109°
2026-04-25 15:04 40.70500 30.15232 30563 ft 447 kts 108°
2026-04-25 15:04 40.69476 30.19093 30933 ft 446 kts 108°
2026-04-25 15:04 40.68460 30.22942 31315 ft 445 kts 108°
2026-04-25 15:05 40.67774 30.25548 31574 ft 445 kts 108°
2026-04-25 15:05 40.66594 30.29309 31976 ft 444 kts 117°
2026-04-25 15:05 40.64994 30.32769 32380 ft 443 kts 126°
2026-04-25 15:06 40.61230 30.39172 33115 ft 441 kts 127°
2026-04-25 15:06 40.59352 30.42363 33514 ft 440 kts 127°
2026-04-25 15:06 40.57484 30.45543 33915 ft 439 kts 127°
2026-04-25 15:06 40.55628 30.48718 34253 ft 437 kts 125°
2026-04-25 15:07 40.54041 30.52118 34553 ft 436 kts 116°
2026-04-25 15:07 40.52891 30.55789 34797 ft 435 kts 107°
2026-04-25 15:07 40.52150 30.59652 34957 ft 437 kts 102°
2026-04-25 15:08 40.50768 30.67524 35001 ft 445 kts 103°
2026-04-25 15:08 40.49315 30.75438 35002 ft 446 kts 105°
2026-04-25 15:09 40.47549 30.83243 35005 ft 446 kts 108°
2026-04-25 15:09 40.44642 30.94839 35003 ft 446 kts 108°
2026-04-25 15:10 40.42765 31.02591 35004 ft 446 kts 107°
2026-04-25 15:11 40.40008 31.14231 35006 ft 445 kts 107°
2026-04-25 15:11 40.38162 31.21984 35007 ft 445 kts 104°
2026-04-25 15:12 40.36201 31.33886 35007 ft 445 kts 102°
2026-04-25 15:12 40.35131 31.40494 35017 ft 446 kts 102°
2026-04-25 15:13 40.32962 31.53763 35024 ft 446 kts 102°
2026-04-25 15:14 40.31651 31.61713 35029 ft 446 kts 102°
2026-04-25 15:14 40.30340 31.69656 35026 ft 447 kts 102°
2026-04-25 15:15 40.29017 31.77611 35027 ft 447 kts 102°
2026-04-25 15:15 40.27685 31.85557 35027 ft 447 kts 103°
2026-04-25 15:16 40.26326 31.93502 35025 ft 447 kts 104°
2026-04-25 15:16 40.23807 32.05261 35030 ft 448 kts 107°
2026-04-25 15:17 40.21156 32.16966 35034 ft 447 kts 106°
2026-04-25 15:18 40.19451 32.24786 35031 ft 447 kts 106°
2026-04-25 15:18 40.16895 32.36525 35029 ft 448 kts 107°
2026-04-25 15:19 40.15458 32.43038 35030 ft 449 kts 107°
2026-04-25 15:19 40.13450 32.52098 35028 ft 450 kts 107°
2026-04-25 15:20 40.11707 32.59959 35036 ft 451 kts 107°
2026-04-25 15:20 40.09955 32.67822 35041 ft 452 kts 107°
2026-04-25 15:21 40.08187 32.75710 35043 ft 453 kts 107°
2026-04-25 15:21 40.06353 32.83584 35045 ft 454 kts 110°
2026-04-25 15:22 40.04150 32.91302 35053 ft 454 kts 113°
2026-04-25 15:22 40.01777 32.98942 35056 ft 454 kts 113°
2026-04-25 15:23 39.99450 33.06605 35059 ft 455 kts 112°
2026-04-25 15:23 39.97172 33.14310 35055 ft 456 kts 112°
2026-04-25 15:24 39.94904 33.22029 35054 ft 457 kts 112°
2026-04-25 15:24 39.92987 33.28503 35058 ft 457 kts 113°
2026-04-25 15:25 39.90306 33.37488 35059 ft 458 kts 113°
2026-04-25 15:25 39.87988 33.45227 35052 ft 459 kts 113°
2026-04-25 15:26 39.85664 33.52971 35051 ft 460 kts 113°
2026-04-25 15:26 39.83344 33.60731 35052 ft 461 kts 110°
2026-04-25 15:27 39.81653 33.68853 35056 ft 463 kts 107°
2026-04-25 15:28 39.79189 33.81001 35064 ft 463 kts 107°
2026-04-25 15:28 39.77503 33.89082 35066 ft 462 kts 111°
2026-04-25 15:29 39.75307 33.96861 35057 ft 462 kts 112°
2026-04-25 15:29 39.73080 34.04743 35053 ft 462 kts 112°
2026-04-25 15:30 39.71230 34.11247 35052 ft 462 kts 112°
2026-04-25 15:30 39.68625 34.20395 35054 ft 462 kts 112°
2026-04-25 15:31 39.66391 34.28221 35053 ft 462 kts 112°
2026-04-25 15:31 39.64151 34.36039 35046 ft 462 kts 113°
2026-04-25 15:32 39.61904 34.43848 35048 ft 462 kts 112°
2026-04-25 15:32 39.59660 34.51671 35054 ft 462 kts 113°
2026-04-25 15:33 39.56270 34.63373 35057 ft 462 kts 113°
2026-04-25 15:33 39.53990 34.71172 35057 ft 463 kts 113°
2026-04-25 15:34 39.51716 34.78959 35062 ft 463 kts 113°
2026-04-25 15:34 39.50211 34.84130 35068 ft 463 kts 113°
2026-04-25 15:35 39.46023 34.98445 35065 ft 463 kts 114°
2026-04-25 15:36 39.42586 35.10114 35063 ft 463 kts 114°
2026-04-25 15:36 39.40291 35.17888 35062 ft 463 kts 114°
2026-04-25 15:37 39.38017 35.25662 35065 ft 463 kts 113°
2026-04-25 15:37 39.35768 35.33455 35066 ft 463 kts 113°
2026-04-25 15:38 39.33520 35.41236 35066 ft 462 kts 113°
2026-04-25 15:38 39.31258 35.49009 35066 ft 462 kts 114°
2026-04-25 15:39 39.28989 35.56766 35066 ft 462 kts 114°
2026-04-25 15:39 39.26713 35.64517 35068 ft 462 kts 114°
2026-04-25 15:40 39.25190 35.69692 35065 ft 461 kts 114°
2026-04-25 15:40 39.22162 35.79970 35067 ft 461 kts 114°
2026-04-25 15:41 39.19881 35.87692 35067 ft 460 kts 114°
2026-04-25 15:41 39.17600 35.95403 35066 ft 460 kts 114°
2026-04-25 15:42 39.15733 36.01819 35066 ft 461 kts 110°
2026-04-25 15:42 39.14489 36.09959 35060 ft 465 kts 102°
2026-04-25 15:43 39.13461 36.18189 35059 ft 465 kts 102°
2026-04-25 15:43 39.12413 36.26410 35058 ft 466 kts 102°
2026-04-25 15:44 39.11354 36.34643 35059 ft 466 kts 102°
2026-04-25 15:44 39.10287 36.42882 35063 ft 467 kts 102°
2026-04-25 15:45 39.09224 36.51129 35067 ft 467 kts 102°
2026-04-25 15:45 39.08327 36.58036 35062 ft 467 kts 102°
2026-04-25 15:46 39.07077 36.67623 35063 ft 467 kts 102°
2026-04-25 15:46 39.05987 36.75872 35065 ft 468 kts 103°
2026-04-25 15:47 39.04902 36.84121 35069 ft 468 kts 103°
2026-04-25 15:47 39.03801 36.92371 35068 ft 468 kts 103°
2026-04-25 15:48 39.02695 37.00630 35071 ft 468 kts 103°
2026-04-25 15:48 39.01573 37.08940 35075 ft 469 kts 103°
2026-04-25 15:49 39.00454 37.17198 35068 ft 469 kts 103°
2026-04-25 15:49 38.99326 37.25462 35071 ft 469 kts 103°
2026-04-25 15:50 38.98203 37.33729 35066 ft 470 kts 103°
2026-04-25 15:50 38.97079 37.42005 35067 ft 470 kts 103°
2026-04-25 15:51 38.96126 37.48884 35068 ft 471 kts 103°
2026-04-25 15:51 38.94765 37.58571 35063 ft 472 kts 103°
2026-04-25 15:52 38.93606 37.66870 35056 ft 472 kts 103°
2026-04-25 15:52 38.92446 37.75176 35065 ft 473 kts 103°
2026-04-25 15:53 38.91271 37.83494 35065 ft 473 kts 103°
2026-04-25 15:53 38.90088 37.91800 34522 ft 474 kts 103°
2026-04-25 15:54 38.89489 37.95960 33927 ft 473 kts 104°
2026-04-25 15:54 38.88895 38.00088 33360 ft 469 kts 104°
2026-04-25 15:54 38.88302 38.04197 32816 ft 465 kts 104°
2026-04-25 15:54 38.87717 38.08261 32290 ft 462 kts 104°
2026-04-25 15:55 38.87138 38.12301 31742 ft 459 kts 104°
2026-04-25 15:55 38.86562 38.16314 31199 ft 456 kts 104°
2026-04-25 15:55 38.85988 38.20303 30657 ft 453 kts 103°
2026-04-25 15:55 38.85415 38.24271 30111 ft 450 kts 103°
2026-04-25 15:56 38.84841 38.28208 29527 ft 447 kts 103°
2026-04-25 15:56 38.84268 38.32102 29016 ft 442 kts 103°
2026-04-25 15:56 38.83700 38.35964 28489 ft 439 kts 103°
2026-04-25 15:56 38.83142 38.39789 27982 ft 435 kts 103°
2026-04-25 15:57 38.82587 38.43586 27482 ft 431 kts 103°
2026-04-25 15:57 38.82037 38.47343 26996 ft 428 kts 103°
2026-04-25 15:57 38.81488 38.51079 26523 ft 425 kts 103°
2026-04-25 15:57 38.80939 38.54787 26055 ft 422 kts 103°
2026-04-25 15:58 38.80391 38.58467 25599 ft 419 kts 103°
2026-04-25 15:58 38.79845 38.62124 25157 ft 417 kts 103°
2026-04-25 15:58 38.79302 38.65773 24715 ft 415 kts 103°
2026-04-25 15:58 38.78761 38.69397 24266 ft 414 kts 103°
2026-04-25 15:59 38.78219 38.73015 23807 ft 413 kts 103°
2026-04-25 15:59 38.77677 38.76624 23303 ft 412 kts 103°
2026-04-25 15:59 38.77135 38.80211 22826 ft 409 kts 103°
2026-04-25 15:59 38.76591 38.83775 22352 ft 406 kts 103°
2026-04-25 16:00 38.76051 38.87320 21878 ft 404 kts 103°
2026-04-25 16:00 38.75871 38.88507 21722 ft 403 kts 103°
2026-04-25 16:00 38.75002 38.94330 20933 ft 398 kts 102°
2026-04-25 16:00 38.74492 38.97805 20444 ft 396 kts 102°
2026-04-25 16:01 38.73988 39.01262 19953 ft 393 kts 102°
2026-04-25 16:01 38.73484 39.04685 19465 ft 391 kts 102°
2026-04-25 16:01 38.72979 39.08094 18983 ft 388 kts 102°
2026-04-25 16:01 38.72474 39.11480 18496 ft 386 kts 102°
2026-04-25 16:02 38.71970 39.14841 17967 ft 384 kts 102°
2026-04-25 16:02 38.71323 39.18126 17474 ft 378 kts 113°
2026-04-25 16:02 38.70107 39.21058 17017 ft 369 kts 128°
2026-04-25 16:02 38.68399 39.23454 16487 ft 361 kts 143°
2026-04-25 16:03 38.66343 39.25188 15973 ft 349 kts 156°
2026-04-25 16:03 38.64153 39.26446 15464 ft 340 kts 165°
2026-04-25 16:03 38.61867 39.26804 14991 ft 327 kts 189°
2026-04-25 16:03 38.59737 39.26011 14507 ft 316 kts 211°
2026-04-25 16:04 38.58061 39.24273 14087 ft 310 kts 232°
2026-04-25 16:04 38.56975 39.21903 13647 ft 308 kts 244°
2026-04-25 16:04 38.56060 39.19442 13202 ft 305 kts 244°
2026-04-25 16:04 38.55148 39.17007 12794 ft 302 kts 244°
2026-04-25 16:05 38.54241 39.14598 12394 ft 300 kts 244°
2026-04-25 16:05 38.53339 39.12207 11991 ft 298 kts 244°
2026-04-25 16:05 38.51549 39.07461 11179 ft 295 kts 244°
2026-04-25 16:06 38.50663 39.05103 10779 ft 294 kts 244°
2026-04-25 16:06 38.49797 39.02803 10391 ft 281 kts 244°
2026-04-25 16:06 38.48966 39.00595 10194 ft 270 kts 244°
2026-04-25 16:06 38.48157 38.98449 9922 ft 267 kts 244°
2026-04-25 16:07 38.47352 38.96320 9576 ft 266 kts 244°
2026-04-25 16:07 38.47082 38.95604 9458 ft 265 kts 244°
2026-04-25 16:07 38.45758 38.92085 8907 ft 264 kts 244°
2026-04-25 16:07 38.45031 38.89947 8574 ft 263 kts 254°
2026-04-25 16:08 38.44866 38.87634 8250 ft 263 kts 276°
2026-04-25 16:08 38.45462 38.85445 7934 ft 265 kts 302°
2026-04-25 16:08 38.46740 38.83814 7817 ft 260 kts 328°
2026-04-25 16:08 38.48450 38.83015 7818 ft 265 kts 353°
2026-04-25 16:09 38.50280 38.83224 7827 ft 267 kts 19°
2026-04-25 16:09 38.51869 38.84424 7823 ft 267 kts 45°
2026-04-25 16:09 38.52894 38.86378 7822 ft 266 kts 72°
2026-04-25 16:09 38.53165 38.88625 7819 ft 249 kts 94°
2026-04-25 16:10 38.53113 38.90787 7826 ft 243 kts 93°
2026-04-25 16:10 38.53072 38.92899 7853 ft 230 kts 92°
2026-04-25 16:10 38.53225 38.94865 7834 ft 219 kts 79°
2026-04-25 16:10 38.53596 38.96694 7812 ft 210 kts 77°
2026-04-25 16:11 38.53956 38.98505 7806 ft 208 kts 77°
2026-04-25 16:11 38.54289 39.00185 7645 ft 184 kts 77°
2026-04-25 16:11 38.54587 39.01693 7430 ft 166 kts 77°
2026-04-25 16:11 38.54858 39.03074 7192 ft 159 kts 78°
2026-04-25 16:12 38.55127 39.04441 6957 ft 158 kts 78°
2026-04-25 16:12 38.55394 39.05797 6721 ft 156 kts 77°
2026-04-25 16:12 38.55657 39.07139 6486 ft 155 kts 78°
2026-04-25 16:12 38.55746 39.07591 6414 ft 155 kts 78°
2026-04-25 16:13 38.56183 39.09815 6010 ft 154 kts 77°
2026-04-25 16:13 38.56441 39.11131 5772 ft 152 kts 77°
2026-04-25 16:13 38.56694 39.12421 5544 ft 151 kts 77°
2026-04-25 16:13 38.56953 39.13739 5311 ft 151 kts 77°
2026-04-25 16:14 38.57207 39.15040 5076 ft 151 kts 77°
2026-04-25 16:14 38.57458 39.16320 4864 ft 150 kts 76°
2026-04-25 16:14 38.57714 39.17632 4611 ft 150 kts 76°
2026-04-25 16:14 38.57959 39.18924 4376 ft 150 kts 77°
2026-04-25 16:15 38.58204 39.20218 4140 ft 149 kts 75°
2026-04-25 16:15 38.58468 39.21495 3881 ft 148 kts 75°
2026-04-25 16:15 38.58718 39.22777 3652 ft 148 kts 76°
2026-04-25 16:15 38.58965 39.24051 3413 ft 148 kts 75°
2026-04-25 16:16 38.59214 39.25331 3197 ft 149 kts 75°
2026-04-25 16:16 38.59468 39.26620 2999 ft 150 kts 75°
2026-04-25 16:16 38.59712 39.27873 2934 ft 123 kts 78°
2026-04-25 16:16 38.59853 39.28604 2935 ft 56 kts 76°
2026-04-25 16:17 38.59937 39.29037 2933 ft 48 kts 75°
2026-04-25 16:17 38.60017 39.29439 2927 ft 45 kts 78°
2026-04-25 16:17 38.60092 39.29780 2931 ft 23 kts 38°
2026-04-25 16:17 38.60166 39.29779 2925 ft 15 kts 352°
2026-04-25 16:18 38.60265 39.29687 2910 ft 15 kts 250°
2026-04-25 16:18 38.60249 39.29650 2911 ft 15 kts 247°
2026-04-25 16:18 38.60199 39.29365 2912 ft 26 kts 256°
2026-04-25 16:18 38.60151 39.29111 2914 ft 31 kts 256°
2026-04-25 16:19 38.60098 39.28843 2911 ft 31 kts 256°
2026-04-25 16:19 38.60064 39.28668 2911 ft 30 kts 256°
2026-04-25 16:19 38.60014 39.28406 2912 ft 32 kts 254°
2026-04-25 16:20 38.59907 39.27869 2912 ft 30 kts 256°
2026-04-25 16:20 38.59853 39.27599 2910 ft 32 kts 255°
2026-04-25 16:20 38.59793 39.27296 2909 ft 14 kts 254°
2026-04-25 16:21 38.59771 39.27180 2910 ft 12 kts 257°
2026-04-25 16:21 38.59760 39.27115 2910 ft 3 kts 255°
2026-04-25 16:21 38.59757 39.27097 2910 ft 8 kts 255°
2026-04-25 16:21 38.59739 39.27013 2910 ft 11 kts 253°
2026-04-25 16:22 38.59721 39.26935 2910 ft 8 kts 254°
2026-04-25 16:22 38.59743 39.26879 2910 ft 5 kts 336°
2026-04-25 16:22 38.59753 39.26880 2910 ft 1 kts
2026-04-25 16:22 38.59758 39.26881 2911 ft 2 kts
2026-04-25 16:23 38.59775 39.26877 2911 ft 3 kts 348°
2026-04-25 16:23 38.59788 39.26873 2912 ft 1 kts 348°
2026-04-25 16:23 38.59791 39.26873 2912 ft 0 kts 348°
2026-04-25 16:23 38.59802 39.26870 2912 ft 4 kts 348°
2026-04-25 16:24 38.59827 39.26863 2913 ft 3 kts 347°
2026-04-25 16:24 38.59846 39.26857 2911 ft 2 kts 348°
2026-04-25 16:24 38.59857 39.26860 2911 ft 1 kts 19°
2026-04-25 16:24 38.59870 39.26879 2913 ft 5 kts 56°
2026-04-25 16:25 38.59891 39.26898 2914 ft 3 kts
2026-04-25 16:25 38.59905 39.26896 2915 ft 3 kts 349°
2026-04-25 16:25 38.59908 39.26895 2915 ft 1 kts 344°
2026-04-25 16:25 38.59930 39.26887 2915 ft 4 kts 345°
2026-04-25 16:26 38.59956 39.26879 2914 ft 2 kts 346°
2026-04-25 16:26 38.59961 39.26877 2916 ft 0 kts 346°
2026-04-25 16:26 38.59963 39.26877 2916 ft 1 kts 346°